This is the latest recevied weather packets stored in our database for station/object IZ1UQG-1. If no packets are shown the sender has not sent any weather packets the latest 10 day(s).
| Time | Temp. | Humidity | Pressure | Rain* | Wind** | Luminosity | Snow |
|---|---|---|---|---|---|---|---|
| 1777934937 | 17.78° C | 50% | 1015.2 hPa | 233.68 mm | - | - | - |
| 1777934637 | 17.78° C | 49% | 1015.1 hPa | 178.31 mm | - | - | - |
| 1777934336 | 17.78° C | 49% | 1015.2 hPa | 164.34 mm | - | - | - |
| 1777934036 | 17.78° C | 49% | 1015.1 hPa | 253.24 mm | - | - | - |
| 1777933737 | 18.33° C | 49% | 1015.1 hPa | 218.69 mm | - | - | - |
| 1777933437 | 18.33° C | 49% | 1015.3 hPa | 195.33 mm | - | - | - |
| 1777933137 | 18.33° C | 49% | 1015.1 hPa | 154.43 mm | - | - | - |
| 1777932837 | 18.33° C | 49% | 1015.1 hPa | 245.62 mm | - | - | - |
| 1777932537 | 18.33° C | 49% | 1015.2 hPa | 246.63 mm | - | - | - |
| 1777932237 | 18.33° C | 49% | 1015.1 hPa | 230.12 mm | - | - | - |
| 1777931937 | 18.33° C | 49% | 1015.3 hPa | 1.52 mm | - | - | - |
| 1777931637 | 18.33° C | 49% | 1015.2 hPa | 43.43 mm | - | - | - |
| 1777931337 | 18.33° C | 49% | 1015.3 hPa | 241.3 mm | - | - | - |
| 1777931037 | 18.89° C | 49% | 1015.3 hPa | 232.66 mm | - | - | - |
| 1777930737 | 18.89° C | 49% | 1015.3 hPa | 148.59 mm | - | - | - |
| 1777930437 | 18.89° C | 48% | 1015.5 hPa | 203.71 mm | - | - | - |
| 1777930137 | 18.89° C | 48% | 1015.2 hPa | 193.29 mm | - | - | - |
| 1777929837 | 18.89° C | 48% | 1015.5 hPa | 172.97 mm | - | - | - |
| 1777929537 | 18.89° C | 48% | 1015.3 hPa | 198.88 mm | - | - | - |
| 1777929237 | 18.89° C | 48% | 1015.3 hPa | 218.19 mm | - | - | - |
| 1777928937 | 18.89° C | 48% | 1015.5 hPa | 201.42 mm | - | - | - |
| 1777928637 | 18.89° C | 48% | 1015.4 hPa | 199.9 mm | - | - | - |
| 1777928337 | 18.89° C | 48% | 1015.3 hPa | 223.77 mm | - | - | - |
| 1777928037 | 19.44° C | 48% | 1015.4 hPa | 169.93 mm | - | - | - |
| 1777927737 | 19.44° C | 47% | 1015.4 hPa | 146.05 mm | - | - | - |
* Rain latest hour (hover to see other rain measurements)
** Current wind speed in m/s (hover to see current wind gust speed)